Time,TemperatureF,DewpointF,PressureIn,WindDirection,WindDirectionDegrees,WindSpeedMPH,WindSpeedGustMPH,Humidity,HourlyPrecipIn,Conditions,Clouds,dailyrainin,SolarRadiationWatts/m^2,SoftwareType,DateUTC
2013-03-20 00:02:00,31.0,2.0,-100.00,ENE,58,9.0,10.0,28,-99.99,,,-99.99,0.030000,,2013-03-20 06:02:00,
2013-03-20 00:12:00,31.0,1.0,-100.00,ENE,65,9.0,10.0,26,-99.99,,,-99.99,0.050000,,2013-03-20 06:12:00,
2013-03-20 00:22:00,31.0,3.0,-100.00,ENE,63,8.0,9.0,30,-99.99,,,-99.99,0.110000,,2013-03-20 06:22:00,
2013-03-20 00:32:00,30.0,3.0,-100.00,ENE,70,8.0,9.0,30,-99.99,,,-99.99,0.040000,,2013-03-20 06:32:00,
2013-03-20 00:42:00,32.0,1.0,-100.00,NE,47,10.0,10.0,25,-99.99,,,-99.99,0.040000,,2013-03-20 06:42:00,
2013-03-20 00:52:00,32.0,1.0,-100.00,NE,47,10.0,10.0,25,-99.99,,,-99.99,0.040000,,2013-03-20 06:52:00,
2013-03-20 01:02:00,30.0,4.0,-100.00,ENE,65,10.0,10.0,31,-99.99,,,-99.99,0.050000,,2013-03-20 07:02:00,
2013-03-20 01:11:00,30.0,4.0,-100.00,ENE,61,8.0,10.0,31,-99.99,,,-99.99,0.020000,,2013-03-20 07:11:00,
2013-03-20 01:21:00,29.0,6.0,-100.00,ENE,65,7.0,8.0,37,-99.99,,,-99.99,0.040000,,2013-03-20 07:21:00,
2013-03-20 01:31:00,29.0,5.0,-100.00,NE,56,7.0,9.0,34,-99.99,,,-99.99,0.070000,,2013-03-20 07:31:00,
2013-03-20 01:42:00,30.0,5.0,-100.00,ENE,65,9.0,9.0,34,-99.99,,,-99.99,0.120000,,2013-03-20 07:42:00,
2013-03-20 01:52:00,31.0,4.0,-100.00,ENE,59,11.0,12.0,31,-99.99,,,-99.99,0.070000,,2013-03-20 07:52:00,
2013-03-20 02:02:00,32.0,4.0,-100.00,NE,54,10.0,12.0,30,-99.99,,,-99.99,0.040000,,2013-03-20 08:02:00,
2013-03-20 02:12:00,29.0,6.0,-100.00,ENE,61,9.0,10.0,37,-99.99,,,-99.99,0.100000,,2013-03-20 08:12:00,
2013-03-20 02:22:00,30.0,2.0,-100.00,ENE,69,10.0,10.0,30,-99.99,,,-99.99,0.120000,,2013-03-20 08:22:00,
2013-03-20 02:32:00,30.0,2.0,-100.00,ENE,67,10.0,10.0,29,-99.99,,,-99.99,0.110000,,2013-03-20 08:32:00,
2013-03-20 02:42:00,30.0,3.0,-100.00,ENE,69,10.0,10.0,31,-99.99,,,-99.99,0.090000,,2013-03-20 08:42:00,
2013-03-20 02:51:00,29.0,5.0,-100.00,ENE,60,9.0,10.0,35,-99.99,,,-99.99,0.110000,,2013-03-20 08:51:00,
2013-03-20 03:02:00,30.0,3.0,-100.00,ENE,64,10.0,10.0,30,-99.99,,,-99.99,0.090000,,2013-03-20 09:02:00,
2013-03-20 03:11:00,29.0,6.0,-100.00,ENE,67,10.0,10.0,35,-99.99,,,-99.99,0.030000,,2013-03-20 09:11:00,
2013-03-20 03:22:00,29.0,6.0,-100.00,ENE,67,10.0,10.0,35,-99.99,,,-99.99,0.030000,,2013-03-20 09:22:00,
2013-03-20 03:32:00,29.0,6.0,-100.00,ENE,64,10.0,10.0,36,-99.99,,,-99.99,0.090000,,2013-03-20 09:32:00,
2013-03-20 03:42:00,31.0,5.0,-100.00,NE,56,10.0,10.0,32,-99.99,,,-99.99,0.010000,,2013-03-20 09:42:00,
2013-03-20 03:52:00,30.0,6.0,-100.00,ENE,67,11.0,11.0,34,-99.99,,,-99.99,0.010000,,2013-03-20 09:52:00,
2013-03-20 04:02:00,30.0,7.0,-100.00,ENE,71,9.0,11.0,37,-99.99,,,-99.99,0.010000,,2013-03-20 10:02:00,
2013-03-20 04:12:00,30.0,8.0,-100.00,ENE,68,11.0,11.0,38,-99.99,,,-99.99,0.030000,,2013-03-20 10:12:00,
2013-03-20 04:22:00,31.0,8.0,-100.00,ENE,67,8.0,10.0,37,-99.99,,,-99.99,0.060000,,2013-03-20 10:22:00,
2013-03-20 04:32:00,31.0,6.0,-100.00,ENE,65,9.0,10.0,34,-99.99,,,-99.99,0.030000,,2013-03-20 10:32:00,
2013-03-20 04:42:00,30.0,8.0,-100.00,ENE,65,8.0,9.0,38,-99.99,,,-99.99,0.010000,,2013-03-20 10:42:00,
2013-03-20 04:52:00,31.0,4.0,-100.00,ENE,59,8.0,8.0,31,-99.99,,,-99.99,0.010000,,2013-03-20 10:52:00,
2013-03-20 05:02:00,31.0,6.0,-100.00,ENE,64,9.0,9.0,33,-99.99,,,-99.99,0.010000,,2013-03-20 11:02:00,
2013-03-20 05:12:00,32.0,5.0,-100.00,ENE,70,9.0,10.0,31,-99.99,,,-99.99,0.010000,,2013-03-20 11:12:00,
2013-03-20 05:22:00,31.0,5.0,-100.00,ENE,65,10.0,10.0,32,-99.99,,,-99.99,0.020000,,2013-03-20 11:22:00,
2013-03-20 05:32:00,32.0,4.0,-100.00,ENE,70,8.0,12.0,30,-99.99,,,-99.99,0.090000,,2013-03-20 11:32:00,
2013-03-20 05:42:00,32.0,4.0,-100.00,ENE,70,8.0,12.0,30,-99.99,,,-99.99,0.090000,,2013-03-20 11:42:00,
2013-03-20 05:52:00,32.0,6.0,-100.00,ENE,62,12.0,12.0,32,-99.99,,,-99.99,0.070000,,2013-03-20 11:52:00,
2013-03-20 06:02:00,33.0,4.0,-100.00,ENE,59,13.0,13.0,28,-99.99,,,-99.99,0.090000,,2013-03-20 12:02:00,
2013-03-20 06:11:00,31.0,8.0,-100.00,ENE,75,10.0,11.0,37,-99.99,,,-99.99,0.090000,,2013-03-20 12:11:00,
2013-03-20 06:22:00,31.0,8.0,-100.00,ENE,75,10.0,11.0,37,-99.99,,,-99.99,0.090000,,2013-03-20 12:22:00,
2013-03-20 06:32:00,32.0,7.0,-100.00,ENE,70,11.0,12.0,34,-99.99,,,-99.99,0.110000,,2013-03-20 12:32:00,
2013-03-20 06:42:00,33.0,7.0,-100.00,ENE,71,10.0,12.0,33,-99.99,,,-99.99,0.090000,,2013-03-20 12:42:00,
2013-03-20 06:51:00,35.0,6.0,-100.00,NE,48,13.0,14.0,28,-99.99,,,-99.99,0.070000,,2013-03-20 12:51:00,
2013-03-20 07:02:00,33.0,7.0,-100.00,ENE,77,8.0,10.0,34,-99.99,,,-99.99,0.060000,,2013-03-20 13:02:00,
2013-03-20 07:12:00,33.0,7.0,-100.00,ENE,77,8.0,10.0,34,-99.99,,,-99.99,0.060000,,2013-03-20 13:12:00,
2013-03-20 07:22:00,34.0,7.0,-100.00,ENE,74,10.0,12.0,31,-99.99,,,-99.99,0.100000,,2013-03-20 13:22:00,
2013-03-20 07:32:00,33.0,11.0,-100.00,ENE,71,9.0,10.0,38,-99.99,,,-99.99,0.090000,,2013-03-20 13:32:00,
2013-03-20 07:42:00,34.0,8.0,-100.00,East,80,7.0,9.0,33,-99.99,,,-99.99,0.140000,,2013-03-20 13:42:00,
2013-03-20 07:52:00,34.0,9.0,-100.00,East,86,6.0,9.0,34,-99.99,,,-99.99,0.190000,,2013-03-20 13:52:00,
2013-03-20 08:02:00,35.0,8.0,-100.00,East,88,5.0,9.0,31,-99.99,,,-99.99,0.300000,,2013-03-20 14:02:00,
2013-03-20 08:12:00,35.0,8.0,-100.00,NE,43,5.0,11.0,30,-99.99,,,-99.99,0.870000,,2013-03-20 14:12:00,
2013-03-20 08:22:00,39.0,18.0,-100.00,NW,323,1.0,16.0,41,-99.99,,,-99.99,3.040000,,2013-03-20 14:22:00,
2013-03-20 08:32:00,37.0,10.0,-100.00,NE,49,8.0,9.0,32,-99.99,,,-99.99,7.320000,,2013-03-20 14:32:00,
2013-03-20 08:42:00,35.0,12.0,-100.00,East,88,7.0,11.0,36,-99.99,,,-99.99,11.400000,,2013-03-20 14:42:00,
2013-03-20 08:52:00,36.0,14.0,-100.00,East,95,8.0,10.0,39,-99.99,,,-99.99,15.950000,,2013-03-20 14:52:00,
2013-03-20 09:02:00,39.0,22.0,-100.00,SSW,209,6.0,11.0,51,-99.99,,,-99.99,21.690001,,2013-03-20 15:02:00,
2013-03-20 09:12:00,37.0,18.0,-100.00,ENE,70,5.0,10.0,46,-99.99,,,-99.99,25.139999,,2013-03-20 15:12:00,
2013-03-20 09:22:00,39.0,25.0,-100.00,ESE,115,2.0,8.0,58,-99.99,,,-99.99,24.570000,,2013-03-20 15:22:00,
2013-03-20 09:33:00,39.0,26.0,-100.00,WSW,241,8.0,15.0,58,-99.99,,,-99.99,21.549999,,2013-03-20 15:33:00,
2013-03-20 09:43:00,38.0,28.0,-100.00,SW,218,6.0,14.0,67,-99.99,,,-99.99,18.480000,,2013-03-20 15:43:00,
2013-03-20 09:52:00,37.0,29.0,-100.00,SSW,206,7.0,15.0,73,-99.99,,,-99.99,19.260000,,2013-03-20 15:52:00,
2013-03-20 10:02:00,36.0,29.0,-100.00,SSW,192,8.0,11.0,77,-99.99,,,-99.99,20.830000,,2013-03-20 16:02:00,
2013-03-20 10:12:00,35.0,30.0,-100.00,SSW,211,7.0,10.0,82,-99.99,,,-99.99,25.760000,,2013-03-20 16:12:00,
2013-03-20 10:22:00,34.0,30.0,-100.00,WSW,247,5.0,9.0,85,-99.99,,,-99.99,26.850000,,2013-03-20 16:22:00,
2013-03-20 10:32:00,33.0,30.0,-100.00,WSW,251,6.0,9.0,88,-99.99,,,-99.99,28.500000,,2013-03-20 16:32:00,
2013-03-20 10:42:00,32.0,30.0,-100.00,SSW,212,5.0,7.0,90,-99.99,,,-99.99,26.940001,,2013-03-20 16:42:00,
2013-03-20 10:52:00,32.0,30.0,-100.00,SW,227,3.0,6.0,91,-99.99,,,-99.99,25.100000,,2013-03-20 16:52:00,
2013-03-20 11:02:00,32.0,30.0,-100.00,East,98,1.0,4.0,91,-99.99,,,-99.99,18.790001,,2013-03-20 17:02:00,
2013-03-20 11:11:00,32.0,30.0,-100.00,ENE,71,5.0,13.0,92,-99.99,,,-99.99,23.250000,,2013-03-20 17:11:00,
2013-03-20 11:21:00,32.0,30.0,-100.00,ENE,63,8.0,10.0,93,-99.99,,,-99.99,35.549999,,2013-03-20 17:21:00,
2013-03-20 11:32:00,32.0,30.0,-100.00,ENE,68,10.0,11.0,92,-99.99,,,-99.99,49.910000,,2013-03-20 17:32:00,
2013-03-20 11:42:00,32.0,31.0,-100.00,ENE,63,8.0,10.0,93,-99.99,,,-99.99,60.970001,,2013-03-20 17:42:00,
2013-03-20 11:52:00,32.0,31.0,-100.00,NE,56,6.0,9.0,93,-99.99,,,-99.99,97.000000,,2013-03-20 17:52:00,
2013-03-20 12:02:00,33.0,31.0,-100.00,ENE,59,4.0,8.0,94,-99.99,,,-99.99,140.300003,,2013-03-20 18:02:00,
2013-03-20 12:12:00,33.0,31.0,-100.00,ENE,77,3.0,7.0,93,-99.99,,,-99.99,154.399994,,2013-03-20 18:12:00,
2013-03-20 12:22:00,33.0,31.0,-100.00,ENE,73,6.0,9.0,93,-99.99,,,-99.99,181.300003,,2013-03-20 18:22:00,
2013-03-20 12:32:00,33.0,31.0,-100.00,NE,56,8.0,9.0,93,-99.99,,,-99.99,216.000000,,2013-03-20 18:32:00,
2013-03-20 12:42:00,34.0,32.0,-100.00,South,176,3.0,10.0,94,-99.99,,,-99.99,225.000000,,2013-03-20 18:42:00,
2013-03-20 12:52:00,35.0,33.0,-100.00,East,92,3.0,7.0,93,-99.99,,,-99.99,214.800003,,2013-03-20 18:52:00,
2013-03-20 13:01:00,34.0,32.0,-100.00,ENE,66,6.0,12.0,92,-99.99,,,-99.99,112.599998,,2013-03-20 19:01:00,
2013-03-20 13:12:00,34.0,32.0,-100.00,ENE,70,5.0,13.0,92,-99.99,,,-99.99,111.199997,,2013-03-20 19:12:00,
2013-03-20 13:22:00,34.0,32.0,-100.00,ENE,71,7.0,9.0,91,-99.99,,,-99.99,142.899994,,2013-03-20 19:22:00,
2013-03-20 13:32:00,35.0,32.0,-100.00,ENE,61,11.0,12.0,91,-99.99,,,-99.99,163.699997,,2013-03-20 19:32:00,
2013-03-20 13:42:00,35.0,32.0,-100.00,ENE,65,10.0,12.0,91,-99.99,,,-99.99,128.199997,,2013-03-20 19:42:00,
2013-03-20 13:52:00,35.0,33.0,-100.00,ENE,58,9.0,11.0,91,-99.99,,,-99.99,134.500000,,2013-03-20 19:52:00,
2013-03-20 14:02:00,35.0,33.0,-100.00,ENE,73,7.0,10.0,92,-99.99,,,-99.99,157.500000,,2013-03-20 20:02:00,
2013-03-20 14:12:00,35.0,33.0,-100.00,ENE,69,8.0,10.0,91,-99.99,,,-99.99,192.199997,,2013-03-20 20:12:00,
2013-03-20 14:22:00,35.0,33.0,-100.00,ENE,60,6.0,9.0,92,-99.99,,,-99.99,140.300003,,2013-03-20 20:22:00,
2013-03-20 14:32:00,36.0,33.0,-100.00,ENE,73,5.0,11.0,91,-99.99,,,-99.99,178.399994,,2013-03-20 20:32:00,
2013-03-20 14:42:00,36.0,33.0,-100.00,ENE,73,5.0,11.0,91,-99.99,,,-99.99,178.399994,,2013-03-20 20:42:00,
2013-03-20 14:52:00,36.0,33.0,-100.00,ENE,62,8.0,9.0,90,-99.99,,,-99.99,170.199997,,2013-03-20 20:52:00,
2013-03-20 15:01:00,36.0,33.0,-100.00,East,82,6.0,9.0,88,-99.99,,,-99.99,271.000000,,2013-03-20 21:01:00,
2013-03-20 15:12:00,37.0,34.0,-100.00,SE,146,3.0,7.0,89,-99.99,,,-99.99,257.200012,,2013-03-20 21:12:00,
2013-03-20 15:22:00,39.0,33.0,-100.00,SW,234,12.0,14.0,79,-99.99,,,-99.99,208.000000,,2013-03-20 21:22:00,
2013-03-20 15:33:00,39.0,33.0,-100.00,WSW,237,15.0,19.0,78,-99.99,,,-99.99,209.500000,,2013-03-20 21:33:00,
2013-03-20 15:42:00,39.0,33.0,-100.00,WSW,245,13.0,19.0,78,-99.99,,,-99.99,173.100006,,2013-03-20 21:42:00,
2013-03-20 15:52:00,38.0,33.0,-100.00,WSW,246,13.0,21.0,82,-99.99,,,-99.99,92.900002,,2013-03-20 21:52:00,
2013-03-20 16:02:00,37.0,33.0,-100.00,WSW,248,13.0,18.0,86,-99.99,,,-99.99,80.000000,,2013-03-20 22:02:00,
2013-03-20 16:12:00,37.0,34.0,-100.00,SW,222,6.0,16.0,89,-99.99,,,-99.99,88.599998,,2013-03-20 22:12:00,
2013-03-20 16:23:00,36.0,34.0,-100.00,SW,227,2.0,9.0,89,-99.99,,,-99.99,172.600006,,2013-03-20 22:23:00,
2013-03-20 16:32:00,38.0,34.0,-100.00,WSW,258,3.0,7.0,88,-99.99,,,-99.99,215.300003,,2013-03-20 22:32:00,
2013-03-20 16:42:00,39.0,35.0,-100.00,South,189,1.0,9.0,85,-99.99,,,-99.99,342.399994,,2013-03-20 22:42:00,
2013-03-20 16:52:00,39.0,34.0,-100.00,ESE,104,1.0,3.0,82,-99.99,,,-99.99,305.100006,,2013-03-20 22:52:00,
2013-03-20 17:02:00,39.0,34.0,-100.00,ENE,67,6.0,8.0,82,-99.99,,,-99.99,335.399994,,2013-03-20 23:02:00,
2013-03-20 17:12:00,38.0,34.0,-100.00,ENE,67,6.0,8.0,85,-99.99,,,-99.99,214.000000,,2013-03-20 23:12:00,
2013-03-20 17:22:00,37.0,34.0,-100.00,ENE,73,6.0,8.0,86,-99.99,,,-99.99,153.300003,,2013-03-20 23:22:00,
2013-03-20 17:32:00,38.0,34.0,-100.00,ENE,67,9.0,11.0,86,-99.99,,,-99.99,147.500000,,2013-03-20 23:32:00,
2013-03-20 17:42:00,38.0,34.0,-100.00,ENE,67,11.0,12.0,86,-99.99,,,-99.99,138.199997,,2013-03-20 23:42:00,
2013-03-20 17:52:00,38.0,34.0,-100.00,ENE,66,10.0,11.0,85,-99.99,,,-99.99,98.800003,,2013-03-20 23:52:00,
2013-03-20 18:02:00,38.0,34.0,-100.00,ENE,74,6.0,11.0,85,-99.99,,,-99.99,72.610001,,2013-03-21 00:02:00,
2013-03-20 18:12:00,38.0,34.0,-100.00,ENE,69,8.0,10.0,85,-99.99,,,-99.99,82.099998,,2013-03-21 00:12:00,
2013-03-20 18:22:00,38.0,34.0,-100.00,ENE,67,6.0,7.0,83,-99.99,,,-99.99,53.919998,,2013-03-21 00:22:00,
2013-03-20 18:32:00,38.0,34.0,-100.00,ESE,116,3.0,7.0,85,-99.99,,,-99.99,70.900002,,2013-03-21 00:32:00,
2013-03-20 18:42:00,38.0,34.0,-100.00,ENE,77,5.0,7.0,85,-99.99,,,-99.99,62.220001,,2013-03-21 00:42:00,
2013-03-20 18:52:00,39.0,35.0,-100.00,ENE,64,6.0,8.0,85,-99.99,,,-99.99,99.500000,,2013-03-21 00:52:00,
2013-03-20 19:02:00,38.0,34.0,-100.00,ENE,77,5.0,7.0,86,-99.99,,,-99.99,82.099998,,2013-03-21 01:02:00,
2013-03-20 19:11:00,39.0,35.0,-100.00,NE,52,8.0,8.0,86,-99.99,,,-99.99,77.000000,,2013-03-21 01:11:00,
2013-03-20 19:22:00,38.0,34.0,-100.00,ENE,69,7.0,9.0,84,-99.99,,,-99.99,67.690002,,2013-03-21 01:22:00,
2013-03-20 19:32:00,39.0,35.0,-100.00,ENE,58,6.0,8.0,84,-99.99,,,-99.99,59.900002,,2013-03-21 01:32:00,
2013-03-20 19:42:00,39.0,35.0,-100.00,NE,55,8.0,9.0,85,-99.99,,,-99.99,26.600000,,2013-03-21 01:42:00,
2013-03-20 19:52:00,39.0,34.0,-100.00,NE,50,10.0,10.0,83,-99.99,,,-99.99,16.850000,,2013-03-21 01:52:00,
2013-03-20 20:22:00,39.0,33.0,-100.00,NE,35,8.0,9.0,80,-99.99,,,-99.99,1.200000,,2013-03-21 02:22:00,
2013-03-20 20:32:00,38.0,32.0,-100.00,ENE,69,4.0,6.0,81,-99.99,,,-99.99,0.260000,,2013-03-21 02:32:00,
2013-03-20 20:42:00,38.0,32.0,-100.00,ENE,69,4.0,6.0,81,-99.99,,,-99.99,0.260000,,2013-03-21 02:42:00,
2013-03-20 20:51:00,38.0,32.0,-100.00,ENE,69,4.0,6.0,81,-99.99,,,-99.99,0.260000,,2013-03-21 02:51:00,
2013-03-20 21:02:00,37.0,33.0,-100.00,ENE,75,2.0,4.0,85,-99.99,,,-99.99,0.000000,,2013-03-21 03:02:00,
2013-03-20 21:12:00,37.0,33.0,-100.00,NE,53,2.0,7.0,82,-99.99,,,-99.99,0.040000,,2013-03-21 03:12:00,
2013-03-20 21:21:00,38.0,32.0,-100.00,NNE,12,4.0,7.0,80,-99.99,,,-99.99,0.030000,,2013-03-21 03:21:00,
2013-03-20 21:32:00,38.0,32.0,-100.00,West,279,4.0,7.0,76,-99.99,,,-99.99,0.010000,,2013-03-21 03:32:00,
2013-03-20 21:43:00,39.0,32.0,-100.00,West,260,7.0,8.0,74,-99.99,,,-99.99,0.010000,,2013-03-21 03:43:00,
2013-03-20 21:52:00,39.0,32.0,-100.00,West,260,7.0,8.0,74,-99.99,,,-99.99,0.010000,,2013-03-21 03:52:00,
2013-03-20 22:02:00,39.0,32.0,-100.00,WNW,295,1.0,9.0,74,-99.99,,,-99.99,0.010000,,2013-03-21 04:02:00,
2013-03-20 22:12:00,37.0,31.0,-100.00,East,82,4.0,6.0,79,-99.99,,,-99.99,0.000000,,2013-03-21 04:12:00,
2013-03-20 22:22:00,37.0,31.0,-100.00,East,82,4.0,6.0,79,-99.99,,,-99.99,0.000000,,2013-03-21 04:22:00,
2013-03-20 22:32:00,37.0,31.0,-100.00,East,85,6.0,8.0,79,-99.99,,,-99.99,0.000000,,2013-03-21 04:32:00,
2013-03-20 22:43:00,36.0,32.0,-100.00,NE,56,5.0,9.0,87,-99.99,,,-99.99,0.000000,,2013-03-21 04:43:00,
2013-03-20 22:52:00,35.0,32.0,-100.00,NE,51,8.0,8.0,86,-99.99,,,-99.99,0.010000,,2013-03-21 04:52:00,
2013-03-20 23:02:00,35.0,32.0,-100.00,NE,49,10.0,12.0,87,-99.99,,,-99.99,0.030000,,2013-03-21 05:02:00,
2013-03-20 23:12:00,35.0,32.0,-100.00,NE,52,8.0,9.0,87,-99.99,,,-99.99,0.040000,,2013-03-21 05:12:00,
2013-03-20 23:22:00,34.0,31.0,-100.00,ENE,68,8.0,8.0,89,-99.99,,,-99.99,0.040000,,2013-03-21 05:22:00,
2013-03-20 23:32:00,33.0,31.0,-100.00,ENE,69,7.0,7.0,90,-99.99,,,-99.99,0.030000,,2013-03-21 05:32:00,
2013-03-20 23:43:00,33.0,31.0,-100.00,ENE,67,8.0,9.0,91,-99.99,,,-99.99,0.050000,,2013-03-21 05:43:00,
2013-03-20 23:51:00,33.0,31.0,-100.00,ENE,65,8.0,9.0,92,-99.99,,,-99.99,0.040000,,2013-03-21 05:51:00,